IBADAL6 Weather Reports


Display with metric or nautical units.
time (UTC)temp
F
wind
direction
speed
MPH
gust
MPH
rain 1hr
in
rain 24hr
in
rain mn
in
humidity
%
barometer
mb
20260506150201 68 142 3.0 11.0 0.00 0.00 0.00 59 1012.1
20260506144615 68 148 5.0 11.0 0.00 0.00 0.00 58 1012.1
20260506143104 67 162 6.0 12.0 0.00 0.00 0.00 60 1012.2
20260506141559 69 211 6.0 12.0 0.00 0.00 0.00 57 1012.3
20260506140108 69 139 5.0 10.0 0.00 0.00 0.00 56 1012.5
20260506134557 69 255 4.0 9.0 0.00 0.00 0.00 54 1012.6
20260506133056 69 193 5.0 10.0 0.00 0.00 0.00 52 1012.6
20260506131557 69 218 3.0 11.0 0.00 0.00 0.00 53 1012.7
20260506130118 69 159 6.0 11.0 0.00 0.00 0.00 51 1012.8
20260506124553 70 157 4.0 10.0 0.00 0.00 0.00 52 1012.8
20260506123052 70 146 3.0 10.0 0.00 0.00 0.00 53 1012.9
20260506121552 69 168 3.0 8.0 0.00 0.00 0.00 53 1012.9
20260506120050 69 232 6.0 11.0 0.00 0.00 0.00 53 1012.9
20260506114549 67 169 7.0 12.0 0.00 0.00 0.00 53 1012.8
20260506113047 67 155 8.0 12.0 0.00 0.00 0.00 54 1012.9
20260506111546 67 203 6.0 11.0 0.00 0.00 0.00 54 1012.9
20260506110050 68 179 7.0 11.0 0.00 0.00 0.00 54 1013.1
20260506104543 68 184 4.0 9.0 0.00 0.00 0.00 55 1013.1
20260506103046 68 181 7.0 12.0 0.00 0.00 0.00 56 1013.1
20260506101551 69 187 3.0 7.0 0.00 0.00 0.00 54 1013.3
20260506100035 67 223 3.0 8.0 0.00 0.00 0.00 58 1013.3
20260506094536 65 146 7.0 10.0 0.00 0.00 0.00 58 1013.4
20260506093032 66 152 4.0 12.0 0.00 0.00 0.00 59 1013.5
20260506091530 66 162 4.0 8.0 0.00 0.00 0.00 57 1013.3
20260506090027 66 150 4.0 8.0 0.00 0.00 0.00 58 1013.3
20260506084529 65 262 2.0 5.0 0.00 0.00 0.00 59 1013.4
20260506083024 65 290 1.0 6.0 0.00 0.00 0.00 59 1013.3
20260506081521 64 288 2.0 7.0 0.00 0.00 0.00 60 1013.2
20260506073013 62 255 2.0 7.0 0.00 0.00 0.00 65 1013.1
20260506071514 60 289 3.0 8.0 0.00 0.00 0.00 70 1012.8
20260506061502 56 317 3.0 8.0 0.00 0.00 0.00 76 1012.5
20260506044601 54 286 1.0 4.0 0.00 0.00 0.00 82 1011.9
20260506043054 54 262 0.0 6.0 0.00 0.00 0.00 82 1011.9
20260506041604 54 275 2.0 5.0 0.00 0.00 0.00 82 1011.8
20260506040052 54 271 0.0 5.0 0.00 0.00 0.00 81 1011.8
20260506034554 55 302 0.0 5.0 0.00 0.00 0.00 80 1011.7
20260506033049 55 281 1.0 3.0 0.00 0.00 0.00 80 1011.7
20260506031552 55 301 1.0 4.0 0.00 0.00 0.00 81 1011.7
20260506030048 55 304 0.0 2.0 0.00 0.00 0.00 81 1011.7
20260506024546 55 311 0.0 3.0 0.00 0.00 0.00 82 1011.7
20260506023045 55 233 0.0 2.0 0.00 0.00 0.00 81 1011.8
20260506021545 55 276 0.0 2.0 0.00 0.00 0.00 82 1011.6
20260506020042 55 308 0.0 0.0 0.00 0.00 0.00 81 1011.4
20260506014549 56 308 0.0 3.0 0.00 0.00 0.00 81 1011.5
20260506011638 56 300 2.0 6.0 0.00 0.00 0.00 81 1011.5
20260506010037 56 293 1.0 5.0 0.00 0.00 0.00 80 1011.6
20260506004541 56 257 0.0 4.0 0.00 0.00 0.00 80 1011.5
20260506003034 57 302 0.0 5.0 0.00 0.00 0.00 79 1011.7
20260506001540 57 243 0.0 3.0 0.00 0.00 0.00 79 1011.8
20260506000039 58 281 1.0 4.0 0.00 0.00 0.00 77 1011.7
20260505234527 59 304 3.0 6.0 0.00 0.00 0.00 76 1011.8
20260505233025 59 299 3.0 7.0 0.00 0.00 0.00 76 1011.7
20260505231525 59 34 2.0 6.0 0.00 0.00 0.00 76 1011.5
20260505230022 60 283 1.0 7.0 0.00 0.00 0.00 76 1011.5
20260505224532 60 311 2.0 7.0 0.00 0.00 0.00 75 1011.6
20260505223018 60 311 3.0 9.0 0.00 0.00 0.00 75 1011.8
20260505221515 60 304 3.0 7.0 0.00 0.00 0.00 73 1011.9
20260505220025 60 308 3.0 7.0 0.00 0.00 0.00 73 1012.2
20260505214516 61 301 4.0 9.0 0.00 0.00 0.00 71 1012.2
20260505213010 61 298 2.0 5.0 0.00 0.00 0.00 69 1012.2
20260505211510 61 285 1.0 5.0 0.00 0.00 0.00 69 1012.0
20260505210009 61 299 0.0 4.0 0.00 0.00 0.00 69 1011.7
20260505204515 61 313 2.0 4.0 0.00 0.08 0.00 70 1011.7
20260505203007 61 277 0.0 5.0 0.00 0.08 0.00 72 1011.7
20260505201507 60 242 2.0 6.0 0.00 0.08 0.00 73 1011.7
20260505200009 61 310 0.0 4.0 0.00 0.08 0.00 69 1011.3
20260505194507 61 290 2.0 9.0 0.00 0.08 0.00 69 1011.1
20260505193021 61 299 5.0 10.0 0.00 0.08 0.00 69 1010.8
20260505191504 62 323 3.0 9.0 0.00 0.08 0.00 68 1010.9
20260505190003 63 233 1.0 3.0 0.00 0.08 0.00 69 1010.7
20260505184503 64 134 2.0 4.0 0.00 0.08 0.00 67 1010.4
20260505183101 64 285 0.0 2.0 0.00 0.08 0.00 64 1010.7
20260505181602 64 318 2.0 5.0 0.00 0.08 0.00 64 1010.9
20260505180059 64 24 0.0 4.0 0.00 0.08 0.00 64 1010.9
20260505174600 64 20 3.0 6.0 0.00 0.08 0.00 63 1011.1
20260505173100 64 316 0.0 6.0 0.00 0.08 0.00 63 1011.3
20260505171558 64 300 2.0 7.0 0.00 0.08 0.00 63 1011.4
20260505170105 64 63 2.0 5.0 0.00 0.08 0.00 74 1011.5
20260505164555 64 142 2.0 3.0 0.00 0.10 0.00 78 1011.4
20260505163059 64 119 1.0 6.0 0.00 0.10 0.00 78 1011.1
20260505161554 65 141 1.0 6.0 0.00 0.10 0.00 76 1011.0
20260505153105 64 129 3.0 6.0 0.00 0.15 0.00 73 1011.0
20260505151552 65 134 4.0 7.0 0.00 0.15 0.00 72 1010.9